| time (UTC) | temp F | wind direction | speed knots | gust knots | rain 1hr in | rain 24hr in | rain mn in | humidity % | barometer mb |
| 20260503224011 | 71 | 297 | 13.0 | 20.0 | 0.00 | 0.00 | 0.00 | 24 | 1004.7 |
| 20260503223509 | 70 | 260 | 14.8 | 22.6 | 0.00 | 0.00 | 0.00 | 23 | 1004.4 |
| 20260503223004 | 70 | 287 | 10.4 | 12.2 | 0.00 | 0.00 | 0.00 | 24 | 1004.8 |
| 20260503222503 | 70 | 296 | 32.2 | 34.8 | 0.00 | 0.00 | 0.00 | 25 | 1004.6 |
| 20260503222000 | 70 | 308 | 11.3 | 27.8 | 0.00 | 0.00 | 0.00 | 25 | 1004.6 |
| 20260503221458 | 70 | 312 | 10.4 | 17.4 | 0.00 | 0.00 | 0.00 | 26 | 1004.3 |
| 20260503220955 | 70 | 275 | 12.2 | 18.2 | 0.00 | 0.00 | 0.00 | 25 | 1004.5 |
| 20260503220452 | 71 | 285 | 7.8 | 14.8 | 0.00 | 0.00 | 0.00 | 26 | 1004.3 |
| 20260503215948 | 71 | 296 | 7.0 | 23.5 | 0.00 | 0.00 | 0.00 | 28 | 1004.1 |
| 20260503215445 | 70 | 280 | 17.4 | 28.7 | 0.00 | 0.00 | 0.00 | 28 | 1004.4 |
| 20260503214943 | 70 | 329 | 20.0 | 32.2 | 0.00 | 0.00 | 0.00 | 29 | 1004.5 |
| 20260503214441 | 71 | 288 | 16.5 | 26.9 | 0.00 | 0.00 | 0.00 | 30 | 1004.3 |
| 20260503213938 | 70 | 298 | 18.2 | 21.7 | 0.00 | 0.00 | 0.00 | 32 | 1004.3 |
| 20260503213436 | 71 | 299 | 14.8 | 20.0 | 0.00 | 0.00 | 0.00 | 32 | 1004.4 |
| 20260503212932 | 70 | 298 | 8.7 | 14.8 | 0.00 | 0.00 | 0.00 | 35 | 1004.4 |
| 20260503212430 | 70 | 306 | 16.5 | 20.9 | 0.00 | 0.00 | 0.00 | 34 | 1004.3 |
| 20260503211927 | 71 | 281 | 13.0 | 22.6 | 0.00 | 0.00 | 0.00 | 33 | 1004.2 |
| 20260503211424 | 71 | 293 | 9.6 | 18.2 | 0.00 | 0.00 | 0.00 | 33 | 1004.2 |
| 20260503210919 | 71 | 285 | 7.8 | 17.4 | 0.00 | 0.00 | 0.00 | 35 | 1004.3 |
| 20260503210416 | 71 | 291 | 17.4 | 28.7 | 0.00 | 0.00 | 0.00 | 36 | 1004.3 |
| 20260503205910 | 70 | 36 | 7.8 | 18.2 | 0.00 | 0.00 | 0.00 | 34 | 1004.4 |
| 20260503205408 | 70 | 288 | 8.7 | 21.7 | 0.00 | 0.00 | 0.00 | 35 | 1004.6 |
| 20260503204904 | 71 | 312 | 19.1 | 26.9 | 0.00 | 0.00 | 0.00 | 31 | 1004.6 |
| 20260503204401 | 71 | 310 | 11.3 | 14.8 | 0.00 | 0.00 | 0.00 | 33 | 1004.6 |
| 20260503203859 | 70 | 327 | 13.0 | 15.6 | 0.00 | 0.00 | 0.00 | 33 | 1004.5 |
| 20260503203356 | 70 | 309 | 16.5 | 35.6 | 0.00 | 0.00 | 0.00 | 33 | 1004.4 |
| 20260503202852 | 70 | 333 | 8.7 | 23.5 | 0.00 | 0.00 | 0.00 | 35 | 1004.9 |
| 20260503202351 | 70 | 318 | 14.8 | 20.9 | 0.00 | 0.00 | 0.00 | 36 | 1004.8 |
| 20260503201849 | 70 | 287 | 18.2 | 21.7 | 0.00 | 0.00 | 0.00 | 35 | 1004.7 |
| 20260503201345 | 70 | 292 | 14.8 | 19.1 | 0.00 | 0.00 | 0.00 | 35 | 1004.8 |
| 20260503200843 | 70 | 283 | 8.7 | 14.8 | 0.00 | 0.00 | 0.00 | 34 | 1004.9 |
| 20260503200338 | 70 | 279 | 8.7 | 18.2 | 0.00 | 0.00 | 0.00 | 34 | 1005.1 |
| 20260503195836 | 71 | 298 | 10.4 | 19.1 | 0.00 | 0.00 | 0.00 | 34 | 1004.9 |
| 20260503195332 | 70 | 272 | 8.7 | 13.9 | 0.00 | 0.00 | 0.00 | 35 | 1004.8 |
| 20260503194830 | 70 | 296 | 14.8 | 20.0 | 0.00 | 0.00 | 0.00 | 35 | 1005.0 |
| 20260503194326 | 70 | 344 | 18.2 | 22.6 | 0.00 | 0.00 | 0.00 | 35 | 1004.9 |
| 20260503193822 | 70 | 265 | 6.1 | 18.2 | 0.00 | 0.00 | 0.00 | 35 | 1004.8 |
| 20260503193318 | 70 | 330 | 9.6 | 20.9 | 0.00 | 0.00 | 0.00 | 35 | 1005.0 |
| 20260503192814 | 70 | 278 | 11.3 | 20.9 | 0.00 | 0.00 | 0.00 | 36 | 1004.9 |
| 20260503192310 | 70 | 259 | 7.0 | 12.2 | 0.00 | 0.00 | 0.00 | 37 | 1004.9 |
| 20260503191806 | 69 | 307 | 8.7 | 12.2 | 0.00 | 0.00 | 0.00 | 36 | 1005.0 |
| 20260503191303 | 69 | 293 | 6.1 | 12.2 | 0.00 | 0.00 | 0.00 | 38 | 1005.2 |
| 20260503190800 | 69 | 318 | 2.6 | 6.1 | 0.00 | 0.00 | 0.00 | 39 | 1005.0 |
| 20260503190257 | 69 | 324 | 13.0 | 17.4 | 0.00 | 0.00 | 0.00 | 38 | 1005.2 |
| 20260503185754 | 69 | 339 | 7.8 | 11.3 | 0.00 | 0.00 | 0.00 | 40 | 1005.2 |
| 20260503185250 | 69 | 279 | 9.6 | 13.9 | 0.00 | 0.00 | 0.00 | 39 | 1005.3 |
| 20260503184744 | 68 | 259 | 5.2 | 11.3 | 0.00 | 0.00 | 0.00 | 40 | 1005.2 |
| 20260503184241 | 69 | 287 | 7.8 | 11.3 | 0.00 | 0.00 | 0.00 | 39 | 1005.3 |
| 20260503183737 | 68 | 293 | 10.4 | 12.2 | 0.00 | 0.00 | 0.00 | 41 | 1005.5 |
| 20260503183235 | 68 | 254 | 6.1 | 7.0 | 0.00 | 0.00 | 0.00 | 41 | 1005.4 |
| 20260503182732 | 67 | 312 | 1.7 | 8.7 | 0.00 | 0.00 | 0.00 | 41 | 1005.2 |
| 20260503182231 | 68 | 282 | 9.6 | 9.6 | 0.00 | 0.00 | 0.00 | 40 | 1005.5 |
| 20260503181728 | 68 | 269 | 4.3 | 9.6 | 0.00 | 0.00 | 0.00 | 40 | 1005.4 |
| 20260503181225 | 68 | 324 | 3.5 | 5.2 | 0.00 | 0.00 | 0.00 | 41 | 1005.5 |
| 20260503180721 | 67 | 300 | 6.1 | 12.2 | 0.00 | 0.00 | 0.00 | 41 | 1005.6 |
| 20260503180219 | 67 | 268 | 7.8 | 11.3 | 0.00 | 0.00 | 0.00 | 41 | 1005.7 |
| 20260503175715 | 67 | 317 | 7.0 | 9.6 | 0.00 | 0.00 | 0.00 | 42 | 1005.8 |
| 20260503175214 | 66 | 298 | 4.3 | 6.1 | 0.00 | 0.00 | 0.00 | 43 | 1005.8 |
| 20260503174709 | 66 | 280 | 5.2 | 7.8 | 0.00 | 0.00 | 0.00 | 44 | 1005.9 |
| 20260503174207 | 66 | 228 | 3.5 | 7.0 | 0.00 | 0.00 | 0.00 | 43 | 1005.8 |
| 20260503173707 | 65 | 237 | 0.9 | 6.1 | 0.00 | 0.00 | 0.00 | 43 | 1005.9 |
| 20260503173204 | 66 | 303 | 7.0 | 11.3 | 0.00 | 0.00 | 0.00 | 43 | 1005.8 |
| 20260503172701 | 65 | 294 | 8.7 | 11.3 | 0.00 | 0.00 | 0.00 | 43 | 1005.8 |
| 20260503172158 | 65 | 261 | 4.3 | 7.8 | 0.00 | 0.00 | 0.00 | 43 | 1005.9 |
| 20260503171654 | 65 | 292 | 7.0 | 11.3 | 0.00 | 0.00 | 0.00 | 43 | 1006.2 |
| 20260503171152 | 64 | 280 | 11.3 | 20.9 | 0.00 | 0.00 | 0.00 | 44 | 1006.2 |
| 20260503170649 | 65 | 284 | 9.6 | 13.9 | 0.00 | 0.00 | 0.00 | 43 | 1006.3 |
| 20260503170145 | 64 | 272 | 9.6 | 11.3 | 0.00 | 0.00 | 0.00 | 43 | 1006.2 |
| 20260503160107 | 62 | 297 | 3.5 | 6.1 | 0.00 | 0.00 | 0.00 | 45 | 1006.3 |
| 20260503150537 | 61 | 285 | 7.0 | 9.6 | 0.00 | 0.00 | 0.00 | 46 | 1006.3 |
| 20260503130927 | 58 | 182 | 2.6 | 7.0 | 0.00 | 0.00 | 0.00 | 53 | 1006.7 |
| 20260503130424 | 58 | 200 | 1.7 | 4.3 | 0.00 | 0.00 | 0.00 | 52 | 1006.7 |
| 20260503110823 | 50 | 170 | 3.5 | 4.3 | 0.00 | 0.00 | 0.00 | 69 | 1007.0 |
| 20260503110320 | 50 | 164 | 2.6 | 2.6 | 0.00 | 0.00 | 0.00 | 70 | 1007.1 |
| 20260503100246 | 51 | 165 | 4.3 | 5.2 | 0.00 | 0.00 | 0.00 | 64 | 1007.1 |
| 20260503090206 | 53 | 165 | 1.7 | 1.7 | 0.00 | 0.00 | 0.00 | 55 | 1007.7 |
| 20260503081636 | 54 | 203 | 1.7 | 4.3 | 0.00 | 0.00 | 0.00 | 54 | 1008.1 |
| 20260503081133 | 54 | 208 | 2.6 | 2.6 | 0.00 | 0.00 | 0.00 | 54 | 1008.3 |
| 20260503080629 | 54 | 210 | 1.7 | 5.2 | 0.00 | 0.00 | 0.00 | 53 | 1008.2 |
| 20260503080126 | 55 | 199 | 0.9 | 1.7 | 0.00 | 0.00 | 0.00 | 53 | 1008.3 |
| 20260503072602 | 55 | 224 | 1.7 | 4.3 | 0.00 | 0.00 | 0.00 | 54 | 1008.4 |
| 20260503072100 | 55 | 199 | 1.7 | 5.2 | 0.00 | 0.00 | 0.00 | 54 | 1008.4 |
| 20260503071556 | 55 | 201 | 2.6 | 4.3 | 0.00 | 0.00 | 0.00 | 55 | 1008.5 |
| 20260503071053 | 54 | 205 | 2.6 | 5.2 | 0.00 | 0.00 | 0.00 | 56 | 1008.7 |
| 20260503070549 | 54 | 216 | 3.5 | 4.3 | 0.00 | 0.00 | 0.00 | 57 | 1008.6 |
| 20260503055003 | 58 | 237 | 0.0 | 2.6 | 0.00 | 0.00 | 0.00 | 53 | 1010.1 |
| 20260503054459 | 57 | 243 | 2.6 | 6.1 | 0.00 | 0.00 | 0.00 | 53 | 1010.3 |
| 20260503053956 | 57 | 307 | 4.3 | 4.3 | 0.00 | 0.00 | 0.00 | 53 | 1010.2 |
| 20260503053454 | 57 | 249 | 0.9 | 2.6 | 0.00 | 0.00 | 0.00 | 51 | 1010.3 |
| 20260503052951 | 58 | 238 | 1.7 | 2.6 | 0.00 | 0.00 | 0.00 | 50 | 1010.3 |
| 20260503052448 | 58 | 246 | 1.7 | 2.6 | 0.00 | 0.00 | 0.00 | 50 | 1010.4 |
| 20260503051944 | 58 | 236 | 1.7 | 1.7 | 0.00 | 0.00 | 0.00 | 50 | 1010.4 |
| 20260503051440 | 58 | 221 | 2.6 | 4.3 | 0.00 | 0.00 | 0.00 | 50 | 1010.3 |
| 20260503050938 | 58 | 225 | 0.9 | 2.6 | 0.00 | 0.00 | 0.00 | 49 | 1010.3 |
| 20260503050433 | 58 | 251 | 1.7 | 2.6 | 0.00 | 0.00 | 0.00 | 49 | 1010.2 |
| 20260503045932 | 58 | 237 | 1.7 | 5.2 | 0.00 | 0.00 | 0.00 | 49 | 1010.4 |
| 20260503045429 | 58 | 237 | 4.3 | 7.0 | 0.00 | 0.00 | 0.00 | 48 | 1010.5 |
| 20260503044925 | 58 | 211 | 3.5 | 5.2 | 0.00 | 0.00 | 0.00 | 48 | 1010.2 |
| 20260503044422 | 58 | 219 | 3.5 | 5.2 | 0.00 | 0.00 | 0.00 | 48 | 1010.3 |
| 20260503043920 | 58 | 219 | 2.6 | 6.1 | 0.00 | 0.00 | 0.00 | 47 | 1010.6 |
| 20260503043416 | 58 | 217 | 1.7 | 4.3 | 0.00 | 0.00 | 0.00 | 47 | 1010.5 |
| 20260503042913 | 58 | 236 | 2.6 | 4.3 | 0.00 | 0.00 | 0.00 | 47 | 1010.7 |
| 20260503042409 | 58 | 209 | 2.6 | 6.1 | 0.00 | 0.00 | 0.00 | 47 | 1010.7 |
| 20260503041906 | 58 | 189 | 0.9 | 2.6 | 0.00 | 0.00 | 0.00 | 47 | 1010.6 |
| 20260503041403 | 58 | 244 | 2.6 | 2.6 | 0.00 | 0.00 | 0.00 | 47 | 1010.7 |
| 20260503040900 | 58 | 210 | 1.7 | 2.6 | 0.00 | 0.00 | 0.00 | 48 | 1010.7 |
| 20260503040358 | 58 | 214 | 3.5 | 4.3 | 0.00 | 0.00 | 0.00 | 47 | 1011.0 |
| 20260503035854 | 58 | 199 | 1.7 | 2.6 | 0.00 | 0.00 | 0.00 | 46 | 1010.9 |
| 20260503035351 | 58 | 215 | 0.9 | 2.6 | 0.00 | 0.00 | 0.00 | 46 | 1011.1 |
| 20260503034848 | 58 | 239 | 0.9 | 2.6 | 0.00 | 0.00 | 0.00 | 46 | 1011.0 |
| 20260503034346 | 58 | 228 | 0.9 | 2.6 | 0.00 | 0.00 | 0.00 | 46 | 1011.0 |
| 20260503033843 | 57 | 228 | 1.7 | 2.6 | 0.00 | 0.00 | 0.00 | 47 | 1011.2 |
| 20260503033341 | 56 | 202 | 1.7 | 2.6 | 0.00 | 0.00 | 0.00 | 48 | 1011.3 |
| 20260503032838 | 56 | 193 | 0.9 | 1.7 | 0.00 | 0.00 | 0.00 | 49 | 1011.4 |
| 20260503032337 | 56 | 216 | 0.0 | 0.9 | 0.00 | 0.00 | 0.00 | 49 | 1011.5 |
| 20260503031834 | 56 | 226 | 0.0 | 0.9 | 0.00 | 0.00 | 0.00 | 48 | 1011.7 |
| 20260503031332 | 56 | 252 | 1.7 | 2.6 | 0.00 | 0.00 | 0.00 | 48 | 1011.6 |
| 20260503030828 | 57 | 245 | 0.9 | 2.6 | 0.00 | 0.00 | 0.00 | 48 | 1011.5 |
| 20260503030325 | 57 | 249 | 1.7 | 1.7 | 0.00 | 0.00 | 0.00 | 48 | 1011.6 |
| 20260503025821 | 57 | 236 | 2.6 | 2.6 | 0.00 | 0.00 | 0.00 | 46 | 1011.8 |
| 20260503025319 | 57 | 193 | 1.7 | 2.6 | 0.00 | 0.00 | 0.00 | 46 | 1011.7 |
| 20260503024815 | 57 | 247 | 1.7 | 2.6 | 0.00 | 0.00 | 0.00 | 46 | 1011.7 |
| 20260503024312 | 57 | 217 | 0.9 | 1.7 | 0.00 | 0.00 | 0.00 | 46 | 1011.9 |
| 20260503023809 | 57 | 210 | 0.9 | 1.7 | 0.00 | 0.00 | 0.00 | 46 | 1011.7 |
| 20260503023307 | 57 | 217 | 0.9 | 1.7 | 0.00 | 0.00 | 0.00 | 45 | 1011.6 |
| 20260503022803 | 57 | 214 | 0.0 | 1.7 | 0.00 | 0.00 | 0.00 | 45 | 1011.9 |
| 20260503022304 | 57 | 217 | 0.0 | 0.9 | 0.00 | 0.00 | 0.00 | 45 | 1011.8 |
| 20260503021759 | 57 | 220 | 0.0 | 0.9 | 0.00 | 0.00 | 0.00 | 45 | 1011.7 |
| 20260503021255 | 57 | 213 | 0.0 | 0.9 | 0.00 | 0.00 | 0.00 | 45 | 1011.8 |
| 20260503020754 | 57 | 220 | 0.9 | 0.9 | 0.00 | 0.00 | 0.00 | 45 | 1011.8 |
| 20260503020251 | 57 | 207 | 0.9 | 0.9 | 0.00 | 0.00 | 0.00 | 45 | 1011.8 |
| 20260503015747 | 57 | 206 | 0.0 | 1.7 | 0.00 | 0.00 | 0.00 | 45 | 1011.9 |
| 20260503015244 | 57 | 203 | 0.9 | 1.7 | 0.00 | 0.00 | 0.00 | 45 | 1011.7 |
| 20260503014739 | 57 | 198 | 0.9 | 1.7 | 0.00 | 0.00 | 0.00 | 44 | 1011.7 |
| 20260503014238 | 57 | 200 | 0.9 | 2.6 | 0.00 | 0.00 | 0.00 | 44 | 1011.8 |
| 20260503013735 | 58 | 196 | 0.9 | 1.7 | 0.00 | 0.00 | 0.00 | 44 | 1011.9 |
| 20260503013232 | 58 | 199 | 1.7 | 2.6 | 0.00 | 0.00 | 0.00 | 44 | 1011.9 |
| 20260503012730 | 58 | 195 | 1.7 | 2.6 | 0.00 | 0.00 | 0.00 | 43 | 1011.8 |
| 20260503012227 | 58 | 207 | 0.0 | 1.7 | 0.00 | 0.00 | 0.00 | 44 | 1012.0 |
| 20260503011723 | 58 | 201 | 1.7 | 1.7 | 0.00 | 0.00 | 0.00 | 43 | 1012.0 |
| 20260503011220 | 59 | 198 | 2.6 | 2.6 | 0.00 | 0.00 | 0.00 | 43 | 1012.0 |
| 20260503010716 | 59 | 189 | 2.6 | 4.3 | 0.00 | 0.00 | 0.00 | 42 | 1012.1 |
| 20260503010213 | 59 | 198 | 1.7 | 2.6 | 0.00 | 0.00 | 0.00 | 42 | 1012.0 |
| 20260503005711 | 59 | 200 | 1.7 | 2.6 | 0.00 | 0.00 | 0.00 | 42 | 1012.2 |
| 20260503005208 | 59 | 182 | 1.7 | 2.6 | 0.00 | 0.00 | 0.00 | 41 | 1012.2 |
| 20260503004704 | 60 | 208 | 1.7 | 4.3 | 0.00 | 0.00 | 0.00 | 40 | 1012.1 |
| 20260503004203 | 60 | 201 | 1.7 | 1.7 | 0.00 | 0.00 | 0.00 | 40 | 1012.1 |
| 20260503003700 | 60 | 189 | 2.6 | 2.6 | 0.00 | 0.00 | 0.00 | 40 | 1012.2 |
| 20260503003156 | 60 | 204 | 0.9 | 1.7 | 0.00 | 0.00 | 0.00 | 39 | 1012.1 |
| 20260503002653 | 60 | 226 | 0.9 | 1.7 | 0.00 | 0.00 | 0.00 | 39 | 1012.2 |
| 20260503002150 | 61 | 211 | 1.7 | 1.7 | 0.00 | 0.00 | 0.00 | 39 | 1012.2 |
| 20260503001646 | 60 | 231 | 3.5 | 6.1 | 0.00 | 0.00 | 0.00 | 38 | 1012.3 |
| 20260503001143 | 61 | 254 | 3.5 | 6.1 | 0.00 | 0.00 | 0.00 | 38 | 1012.5 |
| 20260503000641 | 61 | 219 | 2.6 | 4.3 | 0.00 | 0.00 | 0.00 | 38 | 1012.3 |
| 20260503000138 | 61 | 226 | 2.6 | 7.0 | 0.00 | 0.00 | 0.00 | 38 | 1012.6 |
| 20260502235634 | 61 | 249 | 4.3 | 6.1 | 0.00 | 0.00 | 0.00 | 38 | 1012.5 |
| 20260502235133 | 61 | 253 | 5.2 | 8.7 | 0.00 | 0.00 | 0.00 | 38 | 1012.5 |
| 20260502234628 | 61 | 263 | 4.3 | 6.1 | 0.00 | 0.00 | 0.00 | 38 | 1012.6 |
| 20260502234126 | 61 | 232 | 3.5 | 6.1 | 0.00 | 0.00 | 0.00 | 38 | 1012.6 |
| 20260502233621 | 61 | 251 | 3.5 | 4.3 | 0.00 | 0.00 | 0.00 | 37 | 1012.6 |
| 20260502233118 | 61 | 270 | 5.2 | 7.0 | 0.00 | 0.00 | 0.00 | 37 | 1012.8 |
| 20260502232614 | 61 | 297 | 6.1 | 7.0 | 0.00 | 0.00 | 0.00 | 37 | 1013.1 |
| 20260502232112 | 61 | 228 | 2.6 | 7.0 | 0.00 | 0.00 | 0.00 | 37 | 1013.0 |
| 20260502231608 | 61 | 258 | 4.3 | 9.6 | 0.00 | 0.00 | 0.00 | 37 | 1013.0 |
| 20260502231107 | 61 | 235 | 10.4 | 13.0 | 0.00 | 0.00 | 0.00 | 37 | 1012.9 |
| 20260502230604 | 61 | 283 | 6.1 | 9.6 | 0.00 | 0.00 | 0.00 | 37 | 1013.0 |
| 20260502225558 | 61 | 268 | 6.1 | 7.8 | 0.00 | 0.00 | 0.00 | 37 | 1013.2 |
| 20260502225055 | 61 | 276 | 4.3 | 9.6 | 0.00 | 0.00 | 0.00 | 37 | 1013.4 |
| 20260502224551 | 61 | 266 | 6.1 | 13.9 | 0.00 | 0.00 | 0.00 | 37 | 1013.4 |